When you browse on this site, cookies collect data to enhance your experience and personalize the content and advertising you see.
Visit our Privacy Policy to learn more. By continuing to use the site, you agree to this use of cookies and data.
  • In Lithuania
  • List of Countries
  • For 7 days
  • Water Temperature
  • Satellite Maps
  • Weather Map
  • Weather Widgets
  • user-avatar
    Login

    Hourly Weather Mochudi

    Today, 16 December, Sunday

    Time Temperature Precipitation Wind Pressure Humidity
    00:00 +29°C° 0.1 mm 2 mps 682 mmHg 37%
    01:00 +29°C° 0.1 mm 2 mps 682 mmHg 40%
    02:00 +28°C° 0.1 mm 3 mps 682 mmHg 43%
    03:00 +27°C° 0.2 mm 3 mps 682 mmHg 45%
    04:00 +27°C° 0.2 mm 3 mps 682 mmHg 48%
    05:00 +26°C° 0.2 mm 3 mps 682 mmHg 51%
    06:00 +27°C° 0 mm 3 mps 683 mmHg 46%
    07:00 +28°C° 0 mm 4 mps 683 mmHg 41%
    08:00 +30°C° 0 mm 5 mps 684 mmHg 36%
    09:00 +33°C° 0 mm 4 mps 684 mmHg 32%
    10:00 +35°C° 0 mm 4 mps 684 mmHg 27%
    11:00 +37°C° 0 mm 4 mps 684 mmHg 22%
    12:00 +38°C° 0 mm 4 mps 683 mmHg 20%
    13:00 +40°C° 0 mm 4 mps 683 mmHg 18%
    14:00 +40°C° 0 mm 3 mps 682 mmHg 16%
    15:00 +40°C° 0 mm 3 mps 681 mmHg 15%
    16:00 +40°C° 0 mm 3 mps 681 mmHg 15%
    17:00 +40°C° 0 mm 3 mps 680 mmHg 15%
    18:00 +38°C° 0.1 mm 3 mps 680 mmHg 17%
    19:00 +36°C° 0.1 mm 3 mps 680 mmHg 20%
    20:00 +33°C° 0.1 mm 3 mps 680 mmHg 23%
    21:00 +33°C° 0 mm 3 mps 680 mmHg 24%
    22:00 +31°C° 0 mm 3 mps 681 mmHg 24%
    23:00 +30°C° 0 mm 3 mps 682 mmHg 25%

    Tomorrow, 17 December, Monday

    Time Temperature Precipitation Wind Pressure Humidity
    00:00 +30°C° 0.2 mm 3 mps 682 mmHg 29%
    01:00 +29°C° 0.2 mm 2 mps 682 mmHg 32%
    02:00 +28°C° 0.2 mm 2 mps 682 mmHg 36%
    03:00 +27°C° 0 mm 2 mps 682 mmHg 39%
    04:00 +27°C° 0 mm 3 mps 682 mmHg 42%
    05:00 +26°C° 0 mm 3 mps 682 mmHg 46%
    06:00 +27°C° 0 mm 3 mps 682 mmHg 42%
    07:00 +29°C° 0 mm 4 mps 682 mmHg 39%
    08:00 +30°C° 0 mm 4 mps 683 mmHg 36%
    09:00 +33°C° 0 mm 4 mps 683 mmHg 31%
    10:00 +35°C° 0 mm 3 mps 683 mmHg 26%
    11:00 +37°C° 0 mm 3 mps 683 mmHg 21%
    12:00 +38°C° 0 mm 3 mps 682 mmHg 19%
    13:00 +39°C° 0 mm 3 mps 682 mmHg 17%
    14:00 +40°C° 0 mm 3 mps 681 mmHg 15%
    15:00 +40°C° 0 mm 3 mps 680 mmHg 15%
    16:00 +40°C° 0 mm 3 mps 680 mmHg 15%
    17:00 +40°C° 0 mm 3 mps 679 mmHg 15%
    18:00 +38°C° 0 mm 3 mps 679 mmHg 17%
    19:00 +36°C° 0 mm 3 mps 679 mmHg 19%
    20:00 +34°C° 0 mm 2 mps 679 mmHg 22%
    21:00 +33°C° 0 mm 3 mps 679 mmHg 23%
    22:00 +33°C° 0 mm 3 mps 680 mmHg 24%
    23:00 +31°C° 0 mm 3 mps 680 mmHg 26%

    Day after tomorrow, 18 December, Tuesday

    Time Temperature Precipitation Wind Pressure Humidity
    00:00 +30°C° 0 mm 3 mps 680 mmHg 28%
    01:00 +29°C° 0 mm 2 mps 679 mmHg 30%
    02:00 +29°C° 0 mm 2 mps 679 mmHg 32%
    03:00 +28°C° 0.2 mm 2 mps 679 mmHg 35%
    04:00 +27°C° 0.2 mm 2 mps 679 mmHg 37%
    05:00 +27°C° 0.2 mm 2 mps 679 mmHg 40%
    06:00 +28°C° 0 mm 3 mps 680 mmHg 38%
    07:00 +30°C° 0 mm 4 mps 680 mmHg 36%
    08:00 +32°C° 0 mm 5 mps 681 mmHg 33%
    09:00 +34°C° 0 mm 5 mps 681 mmHg 29%
    10:00 +36°C° 0 mm 4 mps 681 mmHg 24%
    11:00 +38°C° 0 mm 4 mps 681 mmHg 20%
    12:00 +39°C° 0 mm 3 mps 681 mmHg 19%
    13:00 +40°C° 0 mm 3 mps 680 mmHg 17%
    14:00 +41°C° 0 mm 2 mps 679 mmHg 16%
    15:00 +40°C° 0 mm 2 mps 679 mmHg 16%
    16:00 +40°C° 0 mm 2 mps 678 mmHg 16%
    17:00 +40°C° 0 mm 1 mps 678 mmHg 16%
    18:00 +37°C° 0 mm 1 mps 678 mmHg 18%
    19:00 +36°C° 0 mm 1 mps 678 mmHg 19%
    20:00 +34°C° 0 mm 1 mps 678 mmHg 21%
    21:00 +33°C° 0 mm 1 mps 678 mmHg 23%
    22:00 +32°C° 0 mm 2 mps 678 mmHg 25%
    23:00 +31°C° 0 mm 2 mps 678 mmHg 27%

    19 December, Wednesday

    Time Temperature Precipitation Wind Pressure Humidity
    00:00 +31°C° 0 mm 2 mps 678 mmHg 29%
    01:00 +30°C° 0 mm 2 mps 677 mmHg 31%
    02:00 +29°C° 0 mm 2 mps 677 mmHg 33%
    03:00 +29°C° 0 mm 2 mps 677 mmHg 34%
    04:00 +28°C° 0 mm 2 mps 677 mmHg 34%
    05:00 +28°C° 0 mm 3 mps 677 mmHg 35%
    06:00 +29°C° 0 mm 3 mps 678 mmHg 31%
    07:00 +32°C° 0 mm 4 mps 679 mmHg 28%
    08:00 +34°C° 0 mm 5 mps 679 mmHg 24%
    09:00 +36°C° 0 mm 4 mps 680 mmHg 21%
    10:00 +38°C° 0 mm 4 mps 680 mmHg 19%
    11:00 +41°C° 0 mm 4 mps 680 mmHg 16%
    12:00 +42°C° 0 mm 3 mps 679 mmHg 15%
    13:00 +42°C° 0 mm 2 mps 679 mmHg 14%
    14:00 +43°C° 0 mm 1 mps 678 mmHg 13%
    15:00 +43°C° 0 mm 1 mps 678 mmHg 13%
    16:00 +42°C° 0 mm 1 mps 677 mmHg 14%
    17:00 +41°C° 0 mm 1 mps 677 mmHg 14%
    18:00 +39°C° 0.1 mm 2 mps 677 mmHg 17%
    19:00 +38°C° 0.1 mm 3 mps 677 mmHg 19%
    20:00 +36°C° 0.1 mm 4 mps 677 mmHg 22%
    21:00 +36°C° 0 mm 4 mps 677 mmHg 23%
    22:00 +35°C° 0 mm 4 mps 677 mmHg 25%
    23:00 +34°C° 0 mm 4 mps 678 mmHg 26%

    20 December, Thursday

    Time Temperature Precipitation Wind Pressure Humidity
    00:00 +33°C° 0.2 mm 3 mps 677 mmHg 28%
    01:00 +33°C° 0.2 mm 3 mps 677 mmHg 30%
    02:00 +31°C° 0.2 mm 2 mps 677 mmHg 32%
    03:00 +30°C° 0.4 mm 2 mps 677 mmHg 35%
    04:00 +29°C° 0.4 mm 2 mps 677 mmHg 38%
    05:00 +28°C° 0.4 mm 2 mps 677 mmHg 41%
    06:00 +29°C° 0.2 mm 4 mps 678 mmHg 39%
    07:00 +30°C° 0.2 mm 6 mps 679 mmHg 37%
    08:00 +32°C° 0.2 mm 7 mps 680 mmHg 34%
    09:00 +34°C° 0 mm 7 mps 680 mmHg 31%
    10:00 +35°C° 0 mm 6 mps 680 mmHg 28%
    11:00 +38°C° 0 mm 6 mps 680 mmHg 26%
    12:00 +39°C° 0 mm 5 mps 680 mmHg 24%
    13:00 +38°C° 0 mm 4 mps 679 mmHg 22%
    14:00 +39°C° 0 mm 3 mps 679 mmHg 20%
    15:00 +39°C° 0 mm 3 mps 679 mmHg 20%
    16:00 +39°C° 0 mm 3 mps 679 mmHg 19%
    17:00 +39°C° 0 mm 3 mps 678 mmHg 19%
    18:00 +38°C° 0.1 mm 3 mps 678 mmHg 23%
    19:00 +36°C° 0.1 mm 3 mps 678 mmHg 27%
    20:00 +35°C° 0.1 mm 3 mps 678 mmHg 31%
    21:00 +33°C° 0.6 mm 4 mps 679 mmHg 38%
    22:00 +32°C° 0.6 mm 4 mps 679 mmHg 44%
    23:00 +29°C° 0.6 mm 5 mps 679 mmHg 51%

    21 December, Friday

    Time Temperature Precipitation Wind Pressure Humidity
    00:00 +28°C° 0.7 mm 6 mps 680 mmHg 57%
    01:00 +27°C° 0.7 mm 6 mps 680 mmHg 62%
    02:00 +24°C° 0.7 mm 6 mps 680 mmHg 68%
    03:00 +25°C° 0.2 mm 5 mps 680 mmHg 69%
    04:00 +25°C° 0.2 mm 5 mps 680 mmHg 70%
    05:00 +23°C° 0.2 mm 4 mps 681 mmHg 71%
    06:00 +25°C° 0 mm 4 mps 681 mmHg 68%
    07:00 +26°C° 0 mm 5 mps 681 mmHg 65%
    08:00 +27°C° 0 mm 5 mps 682 mmHg 62%
    09:00 +29°C° 0 mm 5 mps 682 mmHg 54%
    10:00 +32°C° 0 mm 5 mps 682 mmHg 47%
    11:00 +34°C° 0 mm 5 mps 682 mmHg 39%
    12:00 +35°C° 0 mm 4 mps 681 mmHg 36%
    13:00 +36°C° 0 mm 4 mps 681 mmHg 32%
    14:00 +38°C° 0 mm 3 mps 680 mmHg 28%
    15:00 +38°C° 0 mm 3 mps 680 mmHg 27%
    16:00 +38°C° 0 mm 3 mps 679 mmHg 25%
    17:00 +38°C° 0 mm 3 mps 679 mmHg 24%
    18:00 +37°C° 0 mm 3 mps 679 mmHg 28%
    19:00 +35°C° 0 mm 4 mps 679 mmHg 31%
    20:00 +33°C° 0 mm 4 mps 679 mmHg 35%
    21:00 +33°C° 0 mm 4 mps 679 mmHg 38%
    22:00 +32°C° 0 mm 5 mps 679 mmHg 41%
    23:00 +30°C° 0 mm 5 mps 680 mmHg 44%
    Show more